Location: Springfield
(37.2150°N, 93.2980°W)
Time: 15:25:34
(UTC-05:00)

NOSS 2-1 (C) - Pass Details

Date: 19 April 2018
Orbit: 482 x 1722 km, 63.3° (Epoch: 04 September)

Event Time Altitude Azimuth Distance (km) Brightness Sun altitude
Rises 21:00:05 0° 224° (SW) 2,557 7.0 -13.5°
Reaches altitude 10° 21:02:15 10° 230° (SW) 1,654 6.1 -13.9°
Maximum altitude 21:05:41 47° 306° (NW) 658 4.2 -14.5°
Drops below altitude 10° 21:09:24 10° 22° (NNE) 1,786 6.0 -15.2°
Sets 21:11:49 0° 28° (NNE) 2,792 6.9 -15.6°
